User: anonymous   Login
Location: Abraham Lincoln Continuation High School
(33.9711°N, 117.3662°W)
Time: 19:20:53
(UTC+00:00)
Language:

Cosmos 1934 Rocket - Orbit

View from above orbital plane
View from above orbital plane
View from above satellite
View from above satellite

Ground track
Ground track

The orbit data is extracted from the following two-line orbital elements,

1 18986U 88023B   20332.85052567 +.00000115 +00000-0 +97831-4 0  9990
2 18986 082.9547 186.4887 0040560 282.2449 077.4168 13.78647870643925
Epoch (UTC): 27 November 2020 20:24:45
Eccentricity: 0.0040560
inclination: 82.9547°
perigee height: 939 km
apogee height: 998 km
right ascension of ascending node: 186.4887°
argument of perigee: 282.2449°
revolutions per day: 13.78647870
mean anomaly at epoch: 77.4168°
orbit number at epoch: 64392

The dashed part of the orbit path shows where the satellite is in the earth's shadow,  

DLR